Wind_Speed
26 31 36 36 33 31 28 26 29 27 28 30 32 26 26 15 28 31 26 23 23 18 17 13 17 18 18 16 16 13 12 12 12 14 15 16 16 16 17 19 22 25 27
27 29 30 35 27 26 25 25 28 32 26 24 24 19 16 17 28 34 26 25 22 19 18 15 16 17 16 13 11 10 7 7 10 10 9 10 14 17 19 23 27 30 32
26 26 28 30 27 26 26 29 28 27 25 23 19 13 13 21 36 29 23 23 22 23 18 14 14 13 12 10 8 6 6 6 4 5 9 12 17 21 25 27 30 34 38
23 25 21 24 27 29 31 29 30 28 21 22 17 19 17 31 29 13 17 17 19 16 13 11 8 8 7 8 7 4 3 3 4 8 12 16 21 25 28 32 35 37 41
28 19 21 25 31 28 30 27 25 23 20 23 21 22 29 25 24 15 13 18 20 14 9 5 5 6 8 6 5 5 2 2 6 11 15 19 24 29 33 36 39 43 46
31 24 19 23 21 23 33 31 24 24 24 31 24 29 33 29 24 16 15 23 17 14 8 6 6 7 7 8 7 4 1 5 9 14 19 24 28 32 37 41 44 48 51
34 26 18 21 21 26 29 26 27 24 27 27 30 29 28 30 25 17 21 17 14 11 9 10 11 11 10 9 6 2 4 8 13 18 24 27 31 36 40 45 49 51 53
33 30 21 22 20 34 22 23 36 29 24 27 28 31 27 27 22 23 17 15 14 11 13 14 14 14 12 8 3 3 8 13 17 22 25 30 35 39 43 47 51 54 53
26 26 25 23 20 21 25 29 32 28 24 27 32 26 28 22 21 23 18 16 13 16 19 17 16 14 10 5 1 7 11 16 20 23 28 32 37 41 45 51 53 53 48
27 26 27 22 15 21 21 27 37 29 24 29 32 32 28 26 27 21 19 16 18 21 20 18 17 12 7 2 4 11 14 18 21 25 30 34 38 41 46 52 54 48 44
33 30 30 26 25 24 24 31 29 31 33 34 30 32 28 32 22 21 20 20 22 22 20 19 15 10 5 3 8 12 15 19 22 26 31 36 39 42 48 53 50 46 38
40 35 34 32 26 37 27 28 20 22 39 37 30 25 32 25 24 24 22 26 24 23 21 17 13 7 3 6 10 13 16 20 23 27 32 36 39 43 49 53 47 45 35
45 40 39 34 29 36 31 29 25 20 28 24 27 28 28 25 26 24 28 28 26 23 20 15 10 5 3 6 10 15 18 21 25 28 31 35 39 42 48 52 46 44 32
49 45 42 34 29 25 27 29 30 25 27 28 29 32 27 28 27 28 29 28 28 23 18 13 7 4 5 7 11 15 19 22 25 28 31 35 37 41 47 51 47 45 35
53 49 44 34 32 27 30 29 31 31 30 33 35 31 29 29 32 31 32 31 26 21 16 10 6 4 6 9 13 17 20 23 24 28 31 33 37 41 45 49 49 45 44
54 51 45 32 36 28 26 27 33 37 35 40 36 32 31 33 30 31 31 28 24 19 13 9 6 6 7 11 14 17 20 22 24 27 29 32 36 40 43 47 50 47 47
56 50 42 38 31 26 25 23 30 35 42 37 34 35 36 32 35 33 30 25 21 17 12 9 8 7 9 12 14 17 20 21 24 27 29 31 35 38 42 45 49 51 49
53 48 42 35 35 30 25 21 32 40 39 40 40 36 37 37 36 36 31 26 21 16 13 10 9 8 10 13 15 18 19 21 24 26 29 31 34 37 39 43 46 50 52
49 44 33 39 35 26 22 26 41 37 35 34 34 38 37 39 37 32 27 23 20 17 13 10 9 10 12 14 16 17 19 21 24 26 28 30 33 37 39 41 44 47 50
45 40 37 37 32 29 26 39 37 35 32 30 32 35 34 34 36 30 26 22 18 16 14 11 9 11 13 15 16 17 20 23 24 26 28 29 32 36 39 41 44 46 48
42 39 36 33 26 26 38 40 36 33 35 35 38 39 38 38 34 29 25 20 17 16 13 11 11 12 14 16 16 18 21 25 25 26 27 28 31 33 37 41 44 46 48
39 40 38 30 26 37 36 35 35 35 32 30 37 38 36 37 32 28 24 20 17 15 13 11 12 13 14 16 16 18 22 27 28 27 28 28 30 32 34 39 42 45 48
39 37 34 33 39 36 35 37 36 36 29 38 38 37 35 35 30 27 23 20 17 14 13 13 14 14 15 16 16 18 22 26 29 29 30 29 30 30 33 36 39 42 45
29 32 34 44 32 38 33 31 32 36 40 42 41 38 39 35 30 27 23 20 16 14 14 15 15 15 16 17 18 19 23 25 28 29 30 30 30 32 34 35 37 39 41
38 32 37 36 36 37 35 34 31 36 44 41 41 38 40 35 31 27 23 20 17 16 15 16 15 16 17 18 20 23 24 25 27 28 29 30 32 34 35 36 37 38 40
39 34 40 46 39 35 36 35 31 32 41 39 39 39 40 36 32 28 24 21 19 16 16 16 15 16 17 19 22 24 24 24 25 26 28 31 32 34 35 36 38 39 40
Wind_Direction
273 267 258 245 244 246 244 243 244 245 240 246 248 243 247 231 196 193 191 212 212 211 218 223 247 260 274 277 277 264 262 265 276 282 295 306 301 307 310 310 307 304 301
259 258 253 244 241 230 234 235 232 244 252 252 258 256 239 219 194 191 195 213 208 211 221 225 249 263 272 267 258 263 267 267 281 289 310 311 313 318 316 315 311 307 303
253 260 255 243 229 220 225 232 227 232 235 248 252 235 248 184 184 183 200 201 209 216 217 223 245 255 265 254 247 259 270 273 276 320 324 325 322 323 320 316 313 309 305
253 253 249 225 212 214 224 231 232 231 219 235 224 207 192 170 179 179 191 197 209 205 209 222 239 265 256 229 243 250 231 244 344 334 326 327 326 322 319 319 315 312 308
241 244 232 217 207 216 222 224 216 210 211 214 187 188 191 183 191 181 193 194 187 193 205 213 231 219 208 220 193 187 209 346 335 336 333 328 326 325 323 322 318 315 313
240 245 237 223 218 224 220 199 199 198 199 164 169 177 189 182 191 189 198 180 186 201 177 188 187 185 187 180 171 185 308 335 343 335 334 332 329 328 327 325 322 320 315
234 237 239 214 216 214 203 180 196 190 178 162 164 176 185 185 177 182 166 179 187 178 158 168 165 166 175 167 178 207 344 346 343 340 336 333 331 331 332 331 327 323 319
233 237 217 207 215 211 217 146 175 180 171 173 166 180 185 169 175 173 173 171 176 159 156 162 160 161 167 171 183 0 353 353 348 340 337 336 336 338 336 333 331 327 322
212 201 195 195 211 222 129 150 177 163 164 164 172 181 170 168 177 172 170 168 154 150 155 157 161 165 163 168 54 357 358 353 345 340 340 341 342 341 339 339 336 330 329
193 186 180 180 189 173 127 168 153 167 177 179 184 180 181 188 174 168 162 159 149 154 152 163 160 157 152 134 8 7 2 351 344 343 346 347 346 344 344 344 341 338 336
189 181 169 173 197 169 142 157 162 167 161 161 174 174 175 173 168 163 159 159 148 150 158 165 150 144 131 55 22 10 355 348 348 349 351 350 349 348 351 351 347 346 345
182 175 174 170 195 154 150 162 149 156 164 163 172 179 173 171 162 162 159 155 149 153 161 158 147 141 109 43 20 0 353 352 353 353 354 354 353 355 357 357 355 353 353
174 172 172 170 193 162 162 158 174 173 178 186 174 179 171 168 160 161 160 152 149 159 157 156 147 133 89 35 6 358 354 356 358 357 357 358 360 1 3 3 1 1 359
171 174 167 173 184 184 160 159 169 173 167 180 187 175 167 161 157 157 156 149 156 158 157 156 143 120 64 15 1 358 359 1 1 359 2 4 5 6 8 8 8 9 7
172 168 169 180 192 168 152 165 161 165 166 183 169 165 163 160 156 159 157 155 158 156 159 149 136 94 40 9 2 1 4 5 4 5 8 8 10 12 14 14 15 15 16
167 165 166 170 163 155 157 164 171 177 184 170 162 166 160 156 156 159 157 158 154 156 149 139 117 74 31 12 5 5 8 7 8 11 11 13 15 18 19 20 21 22 22
162 166 173 174 151 151 158 155 170 173 165 162 162 162 161 159 157 158 160 156 152 148 139 126 103 60 26 13 9 12 12 11 13 14 15 17 18 21 24 25 26 28 27
161 164 174 161 166 158 158 159 168 167 163 165 164 163 162 158 158 159 159 154 147 139 131 118 82 46 24 12 16 20 18 16 17 17 18 20 21 23 27 29 30 32 33
163 171 158 156 160 153 157 164 165 165 165 166 162 163 164 158 159 159 156 151 144 136 127 101 71 42 23 19 25 27 24 22 21 21 21 23 25 27 30 32 32 34 35
163 168 152 156 150 161 157 162 155 158 160 162 164 161 159 158 157 157 152 148 142 134 117 92 63 38 27 28 34 33 33 28 25 25 25 26 29 32 34 37 37 37 37
165 168 158 161 162 158 164 154 155 161 164 167 161 162 161 162 160 155 153 145 140 131 113 86 57 41 34 37 42 40 38 35 31 30 29 31 33 35 38 41 41 41 41
171 159 160 163 164 160 154 152 159 163 162 167 163 163 161 161 158 155 150 141 138 130 110 84 59 46 43 47 48 47 42 40 38 37 35 37 38 39 41 44 45 45 45
157 157 158 157 146 151 156 166 172 168 167 165 164 162 162 159 158 155 146 139 136 128 107 81 63 53 51 55 54 50 44 42 43 44 42 43 44 45 44 45 46 47 47
158 165 170 161 159 160 170 167 168 171 171 167 166 163 161 160 159 154 146 143 141 125 103 80 66 60 57 58 59 53 48 45 46 48 46 48 50 51 49 48 47 47 48
158 160 162 167 167 167 168 161 163 175 170 169 166 163 162 159 159 153 146 142 139 123 99 80 71 65 62 63 65 59 55 53 53 52 54 56 56 56 54 53 52 50 50
163 166 168 166 171 172 167 167 166 169 168 171 169 165 165 162 159 155 147 141 135 119 98 83 73 70 69 70 68 64 61 61 61 61 62 62 60 59 58 57 56 55 55
Height
5605 5606 5612 5618 5622 5625 5629 5635 5640 5643 5646 5648 5654 5659 5660 5663 5668 5674 5681 5687 5693 5695 5697 5699 5703 5703 5705 5703 5704 5704 5703 5703 5703 5702 5701 5698 5696 5694 5691 5688 5685 5682 5678
5597 5600 5603 5609 5615 5618 5622 5629 5633 5636 5639 5644 5648 5653 5655 5657 5662 5670 5679 5686 5687 5690 5693 5694 5698 5701 5701 5700 5700 5700 5699 5699 5699 5699 5696 5695 5694 5691 5688 5684 5680 5676 5671
5588 5593 5596 5601 5606 5612 5617 5622 5628 5631 5636 5639 5645 5649 5649 5650 5659 5667 5675 5679 5683 5687 5687 5690 5694 5696 5697 5698 5698 5698 5698 5697 5697 5695 5694 5693 5690 5686 5682 5679 5675 5668 5662
5582 5586 5588 5593 5600 5606 5611 5616 5621 5626 5632 5636 5641 5645 5650 5654 5660 5666 5671 5676 5680 5682 5685 5690 5691 5693 5694 5696 5697 5696 5697 5696 5694 5693 5692 5689 5685 5681 5676 5672 5667 5660 5653
5575 5580 5584 5588 5594 5599 5604 5609 5617 5621 5628 5633 5638 5643 5649 5654 5661 5665 5669 5673 5677 5680 5683 5685 5686 5689 5693 5695 5696 5696 5696 5695 5693 5691 5689 5685 5681 5676 5670 5664 5657 5649 5640
5568 5573 5578 5583 5589 5594 5599 5607 5613 5619 5624 5630 5635 5641 5647 5653 5659 5664 5667 5671 5675 5680 5679 5680 5685 5690 5692 5694 5695 5697 5695 5694 5691 5688 5685 5681 5676 5671 5663 5655 5646 5637 5628
5559 5567 5575 5580 5584 5588 5591 5598 5609 5616 5621 5625 5632 5639 5644 5651 5658 5661 5666 5670 5675 5675 5674 5681 5685 5688 5692 5694 5696 5696 5694 5692 5688 5685 5680 5676 5670 5663 5655 5646 5635 5624 5611
5552 5562 5570 5575 5580 5585 5588 5592 5604 5614 5620 5624 5631 5636 5643 5650 5656 5660 5665 5669 5673 5671 5676 5682 5685 5689 5692 5695 5696 5695 5693 5688 5685 5682 5677 5671 5664 5655 5646 5637 5625 5610 5596
5548 5558 5565 5570 5577 5585 5588 5597 5605 5612 5618 5625 5629 5637 5643 5649 5654 5659 5664 5668 5668 5672 5678 5682 5686 5690 5693 5696 5696 5694 5689 5686 5683 5679 5673 5666 5657 5649 5639 5627 5613 5597 5584
5545 5554 5562 5569 5576 5583 5585 5593 5603 5611 5617 5624 5630 5636 5643 5649 5653 5657 5662 5667 5668 5675 5678 5685 5686 5691 5695 5696 5695 5691 5687 5684 5681 5676 5669 5661 5653 5644 5633 5619 5602 5587 5575
5542 5551 5559 5567 5574 5579 5585 5597 5604 5610 5615 5622 5629 5636 5642 5647 5653 5657 5662 5667 5670 5675 5681 5687 5688 5693 5696 5695 5692 5689 5686 5683 5678 5672 5665 5657 5648 5638 5625 5610 5595 5581 5568
5537 5547 5557 5566 5573 5580 5586 5597 5603 5609 5615 5622 5630 5636 5641 5647 5652 5658 5662 5667 5670 5676 5684 5688 5690 5694 5695 5693 5691 5688 5685 5681 5675 5669 5662 5654 5645 5633 5621 5605 5590 5576 5564
5533 5545 5555 5565 5573 5579 5589 5597 5601 5608 5616 5623 5630 5636 5643 5649 5653 5658 5663 5666 5671 5681 5685 5690 5693 5695 5694 5692 5690 5686 5683 5679 5673 5667 5660 5652 5642 5631 5618 5602 5588 5575 5564
5530 5542 5555 5565 5572 5580 5586 5595 5603 5609 5617 5623 5630 5637 5644 5649 5653 5659 5665 5667 5676 5682 5687 5692 5694 5695 5693 5691 5689 5686 5682 5677 5672 5666 5659 5650 5641 5630 5617 5603 5589 5576 5563
5530 5544 5556 5564 5571 5579 5588 5596 5603 5608 5616 5623 5630 5638 5644 5651 5653 5660 5666 5672 5679 5684 5690 5693 5694 5694 5692 5691 5688 5685 5681 5676 5671 5665 5658 5650 5641 5630 5618 5605 5591 5578 5565
5531 5546 5557 5562 5572 5581 5590 5597 5602 5608 5616 5622 5629 5639 5643 5649 5656 5665 5670 5676 5681 5687 5692 5694 5694 5694 5693 5691 5688 5684 5680 5676 5670 5664 5658 5650 5641 5631 5620 5608 5595 5582 5571
5537 5549 5560 5567 5576 5583 5590 5598 5603 5609 5615 5625 5632 5638 5644 5653 5658 5665 5675 5680 5684 5690 5693 5694 5695 5694 5693 5691 5688 5684 5680 5676 5670 5664 5658 5651 5643 5634 5624 5612 5601 5588 5576
5541 5552 5562 5569 5579 5586 5592 5598 5604 5612 5619 5625 5631 5640 5648 5653 5661 5670 5676 5681 5687 5691 5694 5696 5696 5695 5693 5691 5688 5684 5681 5676 5671 5666 5659 5653 5645 5637 5628 5618 5607 5596 5584
5545 5556 5564 5573 5582 5588 5594 5600 5607 5615 5623 5631 5637 5642 5651 5657 5665 5673 5679 5684 5689 5693 5696 5697 5697 5695 5694 5691 5688 5685 5682 5677 5672 5667 5662 5656 5649 5641 5632 5623 5613 5603 5593
5550 5559 5568 5578 5584 5591 5596 5604 5612 5620 5628 5635 5641 5649 5657 5663 5670 5676 5681 5687 5691 5695 5697 5698 5697 5696 5694 5692 5689 5687 5683 5679 5674 5669 5664 5659 5652 5646 5638 5629 5620 5610 5601
5553 5563 5571 5579 5586 5593 5601 5607 5616 5623 5630 5635 5641 5649 5657 5665 5671 5678 5684 5689 5693 5696 5698 5699 5698 5697 5695 5693 5691 5688 5685 5681 5676 5672 5667 5662 5656 5651 5644 5636 5627 5619 5610
5558 5566 5575 5582 5588 5596 5604 5611 5618 5626 5633 5639 5646 5653 5660 5668 5675 5681 5687 5691 5695 5698 5700 5700 5699 5698 5697 5695 5693 5691 5688 5684 5679 5675 5670 5666 5661 5656 5650 5643 5635 5628 5620
5562 5571 5578 5585 5592 5601 5607 5614 5620 5628 5635 5641 5649 5657 5665 5672 5679 5685 5689 5693 5697 5700 5702 5701 5700 5700 5699 5697 5695 5694 5691 5687 5683 5679 5675 5670 5666 5661 5656 5650 5643 5637 5630
5566 5574 5581 5589 5596 5604 5609 5616 5622 5629 5636 5644 5651 5658 5666 5674 5681 5686 5690 5695 5699 5702 5703 5703 5702 5702 5701 5699 5698 5696 5694 5691 5687 5684 5680 5676 5671 5666 5661 5656 5650 5645 5639
5570 5577 5583 5591 5598 5606 5612 5619 5625 5631 5638 5646 5654 5661 5669 5676 5683 5688 5693 5697 5701 5704 5705 5705 5704 5704 5703 5702 5701 5700 5698 5695 5692 5689 5685 5681 5677 5673 5668 5663 5658 5653 5648
5574 5579 5585 5594 5601 5607 5615 5621 5627 5634 5642 5649 5657 5663 5671 5678 5684 5690 5695 5699 5703 5705 5707 5707 5706 5706 5706 5705 5704 5703 5701 5699 5696 5694 5691 5688 5684 5680 5675 5671 5667 5662 5656